EW5518 Weather Reports


time (UTC)temp
F
wind
direction
speed
knots
gust
knots
rain 1hr
in
rain 24hr
in
rain mn
in
humidity
%
barometer
mb
20260906114527 71 294 4.3 10.4 0.00 0.00 0.00 71 1008.3
20260906113026 71 287 6.1 10.4 0.00 0.00 0.00 67 1008.5
20260906111527 72 322 6.1 10.4 0.00 0.00 0.00 63 1008.4
20260906110023 73 298 2.6 7.8 0.00 0.00 0.00 56 1008.4
20260906104632 72 340 6.1 12.2 0.00 0.00 0.00 60 1008.5
20260906103019 72 301 6.1 10.4 0.00 0.00 0.00 61 1008.7
20260906101525 72 316 4.3 10.4 0.00 0.00 0.00 55 1008.7
20260906100014 72 205 3.5 9.6 0.00 0.00 0.00 52 1009.0
20260906094513 72 277 4.3 8.7 0.00 0.00 0.00 53 1009.1
20260906093020 73 279 4.3 7.8 0.00 0.00 0.00 53 1009.1
20260906091509 71 227 3.5 7.8 0.00 0.00 0.00 56 1009.2
20260906090022 71 301 4.3 8.7 0.00 0.00 0.00 55 1009.3
20260906084505 71 328 3.5 7.8 0.00 0.00 0.00 53 1009.4
20260906083004 70 23 1.7 7.0 0.00 0.00 0.00 54 1009.3
20260906081501 70 316 2.6 7.8 0.00 0.00 0.00 58 1009.4
20260906080125 70 295 1.7 7.8 0.00 0.00 0.00 58 1009.5
20260906074607 69 355 0.0 5.2 0.00 0.00 0.00 50 1009.4
20260906074520 69 355 0.9 5.2 0.00 0.00 0.00 50 1009.4
20260906073105 68 333 1.7 4.3 0.00 0.00 0.00 52 1009.4
20260906071549 68 25 1.7 3.5 0.00 0.00 0.00 54 1009.4
20260906070045 67 355 0.9 4.3 0.00 0.00 0.00 57 1009.5
20260906064541 67 30 1.7 5.2 0.00 0.00 0.00 57 1009.5
20260906063046 66 290 0.9 5.2 0.00 0.00 0.00 60 1009.4
20260906061533 66 250 0.9 6.1 0.00 0.00 0.00 60 1009.2
20260906060027 66 257 2.6 7.0 0.00 0.00 0.00 56 1009.2
20260906054523 68 315 4.3 7.0 0.00 0.00 0.00 45 1008.9
20260905184521 63 156 3.5 6.1 0.00 0.00 0.00 70 1009.3
20260905183019 65 142 2.6 7.0 0.00 0.00 0.00 64 1009.4
20260905181520 64 132 4.3 7.0 0.00 0.00 0.00 68 1009.4
20260905180014 63 136 4.3 7.0 0.00 0.00 0.00 72 1009.4
20260905174519 63 127 2.6 7.0 0.00 0.00 0.00 75 1009.5
20260905173010 63 136 1.7 3.5 0.00 0.00 0.00 81 1009.3
20260905171511 63 125 1.7 5.2 0.00 0.00 0.00 83 1009.2
20260905170002 64 104 0.9 2.6 0.00 0.00 0.00 85 1008.9
20260905164602 65 5 0.9 2.6 0.00 0.00 0.00 87 1008.7
20260905163058 66 331 0.0 0.0 0.00 0.00 0.00 88 1008.6
20260905161557 66 331 0.0 0.0 0.00 0.00 0.00 88 1008.7
20260905160107 66 331 0.0 0.0 0.00 0.00 0.00 89 1008.5
20260905154622 66 331 0.0 0.0 0.00 0.00 0.00 89 1008.6
20260905153053 66 331 0.0 0.9 0.00 0.00 0.00 89 1008.6
20260905151551 66 331 0.0 0.9 0.00 0.00 0.00 89 1008.6
20260905150053 66 331 0.9 2.6 0.00 0.00 0.00 89 1008.6
20260905144546 66 329 0.0 3.5 0.00 0.00 0.00 89 1008.6